| time (UTC) | temp C | wind direction | speed KPH | gust KPH | rain 1hr cm | rain 24hr cm | rain mn cm | humidity % | barometer mb |
| 20260906230619 | 26 | 175 | 29.0 | 48.3 | 0.00 | 0.00 | 0.00 | 29 | 1021.5 |
| 20260906230120 | 26 | 197 | 32.2 | 37.0 | 0.00 | 0.00 | 0.00 | 27 | 1021.4 |
| 20260906225619 | 26 | 205 | 24.1 | 33.8 | 0.00 | 0.00 | 0.00 | 25 | 1021.2 |
| 20260906225119 | 26 | 220 | 16.1 | 22.5 | 0.00 | 0.00 | 0.00 | 24 | 1020.7 |
| 20260906224619 | 27 | 225 | 16.1 | 24.1 | 0.00 | 0.00 | 0.00 | 24 | 1020.5 |
| 20260906224119 | 27 | 227 | 9.7 | 16.1 | 0.00 | 0.00 | 0.00 | 24 | 1020.2 |
| 20260906223620 | 27 | 244 | 16.1 | 20.9 | 0.00 | 0.00 | 0.00 | 23 | 1020.3 |
| 20260906223119 | 27 | 247 | 8.0 | 20.9 | 0.00 | 0.00 | 0.00 | 23 | 1019.8 |
| 20260906222620 | 27 | 234 | 6.4 | 11.3 | 0.00 | 0.00 | 0.00 | 23 | 1019.8 |
| 20260906222119 | 28 | 238 | 8.0 | 12.9 | 0.00 | 0.00 | 0.00 | 22 | 1019.9 |
| 20260906221620 | 28 | 251 | 4.8 | 6.4 | 0.00 | 0.00 | 0.00 | 23 | 1019.8 |
| 20260906221120 | 28 | 219 | 8.0 | 14.5 | 0.00 | 0.00 | 0.00 | 22 | 1019.6 |
| 20260906220619 | 28 | 222 | 9.7 | 9.7 | 0.00 | 0.00 | 0.00 | 21 | 1019.4 |
| 20260906220119 | 29 | 200 | 6.4 | 9.7 | 0.00 | 0.00 | 0.00 | 22 | 1019.4 |
| 20260906215620 | 29 | 322 | 3.2 | 4.8 | 0.00 | 0.00 | 0.00 | 24 | 1019.2 |
| 20260906215119 | 30 | 211 | 3.2 | 6.4 | 0.00 | 0.00 | 0.00 | 22 | 1019.2 |
| 20260906214620 | 30 | 230 | 3.2 | 4.8 | 0.00 | 0.00 | 0.00 | 22 | 1019.0 |
| 20260906214119 | 30 | 126 | 4.8 | 6.4 | 0.00 | 0.00 | 0.00 | 21 | 1019.1 |
| 20260906213619 | 30 | 169 | 3.2 | 4.8 | 0.00 | 0.00 | 0.00 | 22 | 1018.8 |
| 20260906213119 | 31 | 169 | 3.2 | 4.8 | 0.00 | 0.00 | 0.00 | 22 | 1018.8 |
| 20260906212617 | 31 | 274 | 3.2 | 4.8 | 0.00 | 0.00 | 0.00 | 22 | 1018.7 |
| 20260906212117 | 31 | 141 | 3.2 | 4.8 | 0.00 | 0.00 | 0.00 | 23 | 1018.9 |
| 20260906211618 | 31 | 141 | 3.2 | 4.8 | 0.00 | 0.00 | 0.00 | 21 | 1018.8 |
| 20260906211118 | 31 | 279 | 3.2 | 4.8 | 0.00 | 0.00 | 0.00 | 22 | 1018.6 |
| 20260906210618 | 31 | 204 | 4.8 | 8.0 | 0.00 | 0.00 | 0.00 | 21 | 1018.9 |
| 20260906210117 | 31 | 356 | 3.2 | 3.2 | 0.00 | 0.00 | 0.00 | 22 | 1018.7 |
| 20260906205617 | 31 | 351 | 3.2 | 6.4 | 0.00 | 0.00 | 0.00 | 20 | 1018.8 |
| 20260906205118 | 31 | 244 | 6.4 | 9.7 | 0.00 | 0.00 | 0.00 | 22 | 1018.9 |
| 20260906204618 | 31 | 303 | 9.7 | 11.3 | 0.00 | 0.00 | 0.00 | 21 | 1019.1 |
| 20260906204118 | 31 | 279 | 6.4 | 9.7 | 0.00 | 0.00 | 0.00 | 22 | 1018.9 |
| 20260906203617 | 31 | 291 | 4.8 | 6.4 | 0.00 | 0.00 | 0.00 | 22 | 1018.6 |
| 20260906203117 | 31 | 112 | 8.0 | 9.7 | 0.00 | 0.00 | 0.00 | 22 | 1018.8 |
| 20260906202617 | 30 | 119 | 8.0 | 11.3 | 0.00 | 0.00 | 0.00 | 20 | 1019.0 |
| 20260906202117 | 31 | 280 | 3.2 | 6.4 | 0.00 | 0.00 | 0.00 | 20 | 1018.8 |
| 20260906201617 | 31 | 278 | 4.8 | 6.4 | 0.00 | 0.00 | 0.00 | 22 | 1018.6 |
| 20260906201117 | 31 | 310 | 0.0 | 3.2 | 0.00 | 0.00 | 0.00 | 21 | 1018.7 |
| 20260906200618 | 30 | 279 | 6.4 | 6.4 | 0.00 | 0.00 | 0.00 | 23 | 1019.4 |
| 20260906200118 | 30 | 34 | 3.2 | 3.2 | 0.00 | 0.00 | 0.00 | 21 | 1018.9 |
| 20260906195617 | 30 | 178 | 3.2 | 3.2 | 0.00 | 0.00 | 0.00 | 23 | 1019.4 |
| 20260906195117 | 30 | 40 | 4.8 | 8.0 | 0.00 | 0.00 | 0.00 | 22 | 1019.2 |
| 20260906194617 | 30 | 113 | 6.4 | 9.7 | 0.00 | 0.00 | 0.00 | 20 | 1019.1 |
| 20260906194117 | 30 | 315 | 0.0 | 1.6 | 0.00 | 0.00 | 0.00 | 22 | 1019.1 |
| 20260906193618 | 30 | 80 | 4.8 | 4.8 | 0.00 | 0.00 | 0.00 | 20 | 1019.4 |
| 20260906193117 | 29 | 355 | 4.8 | 6.4 | 0.00 | 0.00 | 0.00 | 22 | 1019.8 |
| 20260906192618 | 29 | 74 | 6.4 | 9.7 | 0.00 | 0.00 | 0.00 | 20 | 1019.7 |
| 20260906192118 | 29 | 25 | 0.0 | 0.0 | 0.00 | 0.00 | 0.00 | 24 | 1020.2 |
| 20260906191617 | 28 | 293 | 3.2 | 4.8 | 0.00 | 0.00 | 0.00 | 24 | 1020.4 |
| 20260906191118 | 28 | 143 | 3.2 | 4.8 | 0.00 | 0.00 | 0.00 | 24 | 1020.2 |
| 20260906190618 | 27 | 103 | 4.8 | 4.8 | 0.00 | 0.00 | 0.00 | 25 | 1020.6 |
| 20260906190118 | 27 | 262 | 1.6 | 3.2 | 0.00 | 0.00 | 0.00 | 27 | 1020.6 |
| 20260906185618 | 27 | 148 | 9.7 | 9.7 | 0.00 | 0.00 | 0.00 | 28 | 1021.0 |
| 20260906185117 | 27 | 148 | 9.7 | 9.7 | 0.00 | 0.00 | 0.00 | 28 | 1021.3 |
| 20260906184617 | 26 | 148 | 9.7 | 9.7 | 0.00 | 0.00 | 0.00 | 25 | 1021.3 |
| 20260906184118 | 26 | 148 | 9.7 | 9.7 | 0.00 | 0.00 | 0.00 | 25 | 1021.5 |
| 20260906183618 | 26 | 167 | 6.4 | 9.7 | 0.00 | 0.00 | 0.00 | 25 | 1021.3 |
| 20260906183117 | 26 | 99 | 6.4 | 11.3 | 0.00 | 0.00 | 0.00 | 24 | 1021.5 |
| 20260906182617 | 26 | 114 | 3.2 | 6.4 | 0.00 | 0.00 | 0.00 | 27 | 1021.6 |
| 20260906182117 | 26 | 87 | 3.2 | 4.8 | 0.00 | 0.00 | 0.00 | 27 | 1021.6 |
| 20260906181617 | 25 | 87 | 3.2 | 4.8 | 0.00 | 0.00 | 0.00 | 27 | 1021.8 |
| 20260906181118 | 25 | 87 | 3.2 | 4.8 | 0.00 | 0.00 | 0.00 | 27 | 1021.9 |
| 20260906180618 | 25 | 87 | 3.2 | 4.8 | 0.00 | 0.00 | 0.00 | 28 | 1022.0 |
| 20260906180117 | 25 | 87 | 3.2 | 4.8 | 0.00 | 0.00 | 0.00 | 26 | 1022.2 |
| 20260906175618 | 26 | 87 | 3.2 | 4.8 | 0.00 | 0.00 | 0.00 | 27 | 1022.0 |
| 20260906175118 | 26 | 122 | 3.2 | 4.8 | 0.00 | 0.00 | 0.00 | 28 | 1022.2 |
| 20260906174618 | 26 | 336 | 4.8 | 4.8 | 0.00 | 0.00 | 0.00 | 27 | 1022.4 |
| 20260906174117 | 26 | 81 | 8.0 | 8.0 | 0.00 | 0.00 | 0.00 | 28 | 1022.6 |
| 20260906173618 | 25 | 154 | 4.8 | 6.4 | 0.00 | 0.00 | 0.00 | 29 | 1022.8 |
| 20260906173118 | 24 | 127 | 8.0 | 9.7 | 0.00 | 0.00 | 0.00 | 31 | 1022.9 |
| 20260906172617 | 23 | 86 | 8.0 | 8.0 | 0.00 | 0.00 | 0.00 | 32 | 1023.1 |
| 20260906172117 | 23 | 75 | 11.3 | 14.5 | 0.00 | 0.00 | 0.00 | 32 | 1023.7 |
| 20260906171617 | 22 | 19 | 6.4 | 6.4 | 0.00 | 0.00 | 0.00 | 32 | 1023.2 |
| 20260906171118 | 22 | 125 | 4.8 | 6.4 | 0.00 | 0.00 | 0.00 | 33 | 1023.6 |
| 20260906170617 | 21 | 141 | 3.2 | 3.2 | 0.00 | 0.00 | 0.00 | 35 | 1024.2 |
| 20260906170117 | 21 | 141 | 3.2 | 3.2 | 0.00 | 0.00 | 0.00 | 35 | 1024.0 |
| 20260906165617 | 21 | 168 | 3.2 | 4.8 | 0.00 | 0.00 | 0.00 | 35 | 1024.3 |
| 20260906165117 | 21 | 133 | 9.7 | 11.3 | 0.00 | 0.00 | 0.00 | 36 | 1024.2 |
| 20260906164618 | 21 | 133 | 9.7 | 11.3 | 0.00 | 0.00 | 0.00 | 36 | 1024.2 |
| 20260906164117 | 21 | 107 | 4.8 | 4.8 | 0.00 | 0.00 | 0.00 | 36 | 1023.7 |
| 20260906163617 | 20 | 144 | 4.8 | 8.0 | 0.00 | 0.00 | 0.00 | 37 | 1023.7 |
| 20260906163118 | 20 | 110 | 6.4 | 8.0 | 0.00 | 0.00 | 0.00 | 37 | 1023.8 |
| 20260906162617 | 20 | 124 | 4.8 | 9.7 | 0.00 | 0.00 | 0.00 | 38 | 1023.8 |
| 20260906162117 | 20 | 199 | 6.4 | 6.4 | 0.00 | 0.00 | 0.00 | 40 | 1024.2 |
| 20260906161618 | 19 | 151 | 4.8 | 8.0 | 0.00 | 0.00 | 0.00 | 40 | 1024.3 |
| 20260906161118 | 19 | 113 | 6.4 | 9.7 | 0.00 | 0.00 | 0.00 | 40 | 1024.2 |
| 20260906160618 | 19 | 139 | 3.2 | 6.4 | 0.00 | 0.00 | 0.00 | 40 | 1024.4 |
| 20260906160117 | 19 | 333 | 0.0 | 8.0 | 0.00 | 0.00 | 0.00 | 40 | 1024.4 |
| 20260906155617 | 18 | 115 | 8.0 | 8.0 | 0.00 | 0.00 | 0.00 | 42 | 1024.5 |
| 20260906155118 | 18 | 60 | 4.8 | 8.0 | 0.00 | 0.00 | 0.00 | 40 | 1024.3 |
| 20260906154618 | 18 | 54 | 3.2 | 4.8 | 0.00 | 0.00 | 0.00 | 42 | 1024.5 |
| 20260906154118 | 18 | 112 | 4.8 | 8.0 | 0.00 | 0.00 | 0.00 | 43 | 1024.3 |
| 20260906153617 | 18 | 89 | 6.4 | 11.3 | 0.00 | 0.00 | 0.00 | 42 | 1024.3 |
| 20260906153118 | 17 | 121 | 4.8 | 9.7 | 0.00 | 0.00 | 0.00 | 43 | 1024.5 |
| 20260906152617 | 17 | 126 | 6.4 | 6.4 | 0.00 | 0.00 | 0.00 | 45 | 1024.5 |
| 20260906152118 | 17 | 81 | 3.2 | 8.0 | 0.00 | 0.00 | 0.00 | 45 | 1024.6 |
| 20260906151617 | 17 | 88 | 1.6 | 3.2 | 0.00 | 0.00 | 0.00 | 48 | 1024.6 |
| 20260906151117 | 16 | 105 | 3.2 | 6.4 | 0.00 | 0.00 | 0.00 | 49 | 1024.6 |
| 20260906150618 | 16 | 71 | 6.4 | 8.0 | 0.00 | 0.00 | 0.00 | 50 | 1024.8 |
| 20260906150117 | 15 | 80 | 4.8 | 4.8 | 0.00 | 0.00 | 0.00 | 55 | 1024.8 |
| 20260906145617 | 15 | 80 | 4.8 | 4.8 | 0.00 | 0.00 | 0.00 | 56 | 1024.9 |
| 20260906145117 | 15 | 104 | 6.4 | 6.4 | 0.00 | 0.00 | 0.00 | 56 | 1025.1 |
| 20260906144616 | 15 | 87 | 3.2 | 4.8 | 0.00 | 0.00 | 0.00 | 56 | 1025.1 |
| 20260906144116 | 15 | 103 | 3.2 | 6.4 | 0.00 | 0.00 | 0.00 | 57 | 1024.8 |
| 20260906143616 | 15 | 132 | 6.4 | 6.4 | 0.00 | 0.00 | 0.00 | 57 | 1025.1 |
| 20260906143117 | 14 | 151 | 1.6 | 3.2 | 0.00 | 0.00 | 0.00 | 56 | 1024.8 |
| 20260906142616 | 14 | 116 | 1.6 | 3.2 | 0.00 | 0.00 | 0.00 | 56 | 1024.7 |
| 20260906142117 | 14 | 166 | 4.8 | 4.8 | 0.00 | 0.00 | 0.00 | 56 | 1024.7 |
| 20260906141616 | 14 | 105 | 4.8 | 4.8 | 0.00 | 0.00 | 0.00 | 56 | 1024.8 |
| 20260906141117 | 14 | 105 | 4.8 | 4.8 | 0.00 | 0.00 | 0.00 | 55 | 1024.4 |
| 20260906140617 | 14 | 289 | 3.2 | 3.2 | 0.00 | 0.00 | 0.00 | 55 | 1024.4 |
| 20260906140117 | 14 | 124 | 8.0 | 9.7 | 0.00 | 0.00 | 0.00 | 55 | 1024.5 |
| 20260906135616 | 14 | 85 | 3.2 | 4.8 | 0.00 | 0.00 | 0.00 | 54 | 1024.2 |
| 20260906135116 | 15 | 103 | 3.2 | 6.4 | 0.00 | 0.00 | 0.00 | 53 | 1023.7 |
| 20260906134616 | 15 | 150 | 4.8 | 6.4 | 0.00 | 0.00 | 0.00 | 52 | 1023.5 |
| 20260906134117 | 16 | 180 | 4.8 | 6.4 | 0.00 | 0.00 | 0.00 | 50 | 1023.0 |
| 20260906133617 | 17 | 106 | 6.4 | 6.4 | 0.00 | 0.00 | 0.00 | 47 | 1022.6 |
| 20260906133117 | 18 | 77 | 4.8 | 6.4 | 0.00 | 0.00 | 0.00 | 44 | 1021.9 |
| 20260906132616 | 20 | 104 | 4.8 | 4.8 | 0.00 | 0.00 | 0.00 | 44 | 1021.3 |
| 20260906132117 | 18 | 86 | 3.2 | 4.8 | 0.00 | 0.00 | 0.00 | 51 | 1021.5 |
| 20260906131616 | 16 | 63 | 3.2 | 4.8 | 0.00 | 0.00 | 0.00 | 57 | 1022.1 |
| 20260906131116 | 13 | 84 | 0.0 | 3.2 | 0.00 | 0.00 | 0.00 | 64 | 1022.6 |
| 20260906130617 | 11 | 168 | 1.6 | 4.8 | 0.00 | 0.00 | 0.00 | 68 | 1023.5 |
| 20260906130116 | 10 | 56 | 3.2 | 3.2 | 0.00 | 0.00 | 0.00 | 67 | 1023.7 |
| 20260906125617 | 10 | 116 | 3.2 | 6.4 | 0.00 | 0.00 | 0.00 | 67 | 1023.7 |
| 20260906125117 | 10 | 155 | 3.2 | 4.8 | 0.00 | 0.00 | 0.00 | 67 | 1023.7 |
| 20260906124616 | 10 | 82 | 3.2 | 8.0 | 0.00 | 0.00 | 0.00 | 67 | 1023.3 |
| 20260906124116 | 10 | 75 | 6.4 | 8.0 | 0.00 | 0.00 | 0.00 | 68 | 1023.1 |
| 20260906123616 | 10 | 99 | 6.4 | 9.7 | 0.00 | 0.00 | 0.00 | 67 | 1023.2 |
| 20260906123117 | 10 | 92 | 8.0 | 9.7 | 0.00 | 0.00 | 0.00 | 68 | 1022.8 |
| 20260906122616 | 10 | 53 | 6.4 | 9.7 | 0.00 | 0.00 | 0.00 | 69 | 1022.7 |
| 20260906122116 | 10 | 49 | 11.3 | 12.9 | 0.00 | 0.00 | 0.00 | 66 | 1022.7 |
| 20260906121616 | 10 | 78 | 1.6 | 6.4 | 0.00 | 0.00 | 0.00 | 65 | 1022.6 |
| 20260906121117 | 11 | 121 | 6.4 | 11.3 | 0.00 | 0.00 | 0.00 | 65 | 1022.5 |
| 20260906120616 | 11 | 176 | 4.8 | 4.8 | 0.00 | 0.00 | 0.00 | 64 | 1022.6 |
| 20260906120117 | 11 | 50 | 6.4 | 8.0 | 0.00 | 0.00 | 0.00 | 64 | 1022.3 |
| 20260906115616 | 11 | 23 | 6.4 | 11.3 | 0.00 | 0.00 | 0.00 | 66 | 1022.6 |
| 20260906115116 | 11 | 3 | 8.0 | 12.9 | 0.00 | 0.00 | 0.00 | 66 | 1022.4 |
| 20260906114617 | 10 | 60 | 4.8 | 6.4 | 0.00 | 0.00 | 0.00 | 64 | 1022.4 |
| 20260906114116 | 11 | 222 | 0.0 | 3.2 | 0.00 | 0.00 | 0.00 | 63 | 1022.4 |
| 20260906113616 | 11 | 94 | 3.2 | 6.4 | 0.00 | 0.00 | 0.00 | 63 | 1022.4 |
| 20260906113117 | 11 | 145 | 1.6 | 4.8 | 0.00 | 0.00 | 0.00 | 62 | 1022.4 |
| 20260906112617 | 11 | 67 | 4.8 | 6.4 | 0.00 | 0.00 | 0.00 | 63 | 1022.5 |
| 20260906112116 | 11 | 63 | 4.8 | 6.4 | 0.00 | 0.00 | 0.00 | 62 | 1022.4 |
| 20260906111616 | 11 | 59 | 6.4 | 11.3 | 0.00 | 0.00 | 0.00 | 63 | 1022.1 |
| 20260906111117 | 11 | 40 | 8.0 | 8.0 | 0.00 | 0.00 | 0.00 | 63 | 1022.4 |
| 20260906110617 | 11 | 41 | 8.0 | 9.7 | 0.00 | 0.00 | 0.00 | 65 | 1022.1 |
| 20260906110114 | 11 | 47 | 9.7 | 9.7 | 0.00 | 0.00 | 0.00 | 65 | 1022.4 |
| 20260906105614 | 11 | 87 | 4.8 | 6.4 | 0.00 | 0.00 | 0.00 | 64 | 1022.2 |
| 20260906105115 | 11 | 58 | 3.2 | 6.4 | 0.00 | 0.00 | 0.00 | 64 | 1022.4 |
| 20260906104615 | 11 | 118 | 3.2 | 6.4 | 0.00 | 0.00 | 0.00 | 63 | 1022.3 |
| 20260906104114 | 11 | 100 | 3.2 | 6.4 | 0.00 | 0.00 | 0.00 | 64 | 1022.1 |
| 20260906103615 | 11 | 85 | 4.8 | 6.4 | 0.00 | 0.00 | 0.00 | 64 | 1022.3 |
| 20260906103115 | 11 | 89 | 4.8 | 4.8 | 0.00 | 0.00 | 0.00 | 63 | 1022.1 |
| 20260906102614 | 11 | 110 | 3.2 | 3.2 | 0.00 | 0.00 | 0.00 | 62 | 1022.4 |
| 20260906102114 | 11 | 218 | 3.2 | 3.2 | 0.00 | 0.00 | 0.00 | 61 | 1022.0 |
| 20260906101614 | 11 | 206 | 3.2 | 4.8 | 0.00 | 0.00 | 0.00 | 60 | 1021.9 |
| 20260906101115 | 12 | 31 | 9.7 | 9.7 | 0.00 | 0.00 | 0.00 | 60 | 1021.9 |
| 20260906100614 | 12 | 33 | 8.0 | 11.3 | 0.00 | 0.00 | 0.00 | 59 | 1021.6 |
| 20260906100114 | 11 | 47 | 8.0 | 8.0 | 0.00 | 0.00 | 0.00 | 60 | 1021.8 |
| 20260906095615 | 11 | 62 | 4.8 | 8.0 | 0.00 | 0.00 | 0.00 | 61 | 1021.5 |
| 20260906095114 | 12 | 95 | 3.2 | 3.2 | 0.00 | 0.00 | 0.00 | 61 | 1021.6 |
| 20260906094614 | 11 | 36 | 6.4 | 8.0 | 0.00 | 0.00 | 0.00 | 61 | 1021.7 |
| 20260906094114 | 11 | 51 | 4.8 | 4.8 | 0.00 | 0.00 | 0.00 | 61 | 1021.7 |
| 20260906093615 | 11 | 83 | 6.4 | 6.4 | 0.00 | 0.00 | 0.00 | 63 | 1021.7 |
| 20260906093114 | 11 | 96 | 4.8 | 6.4 | 0.00 | 0.00 | 0.00 | 62 | 1021.7 |
| 20260906092615 | 11 | 73 | 1.6 | 3.2 | 0.00 | 0.00 | 0.00 | 60 | 1021.7 |
| 20260906092114 | 11 | 89 | 3.2 | 4.8 | 0.00 | 0.00 | 0.00 | 61 | 1021.8 |
| 20260906091614 | 12 | 94 | 3.2 | 6.4 | 0.00 | 0.00 | 0.00 | 61 | 1021.6 |
| 20260906091114 | 12 | 118 | 3.2 | 3.2 | 0.00 | 0.00 | 0.00 | 60 | 1021.7 |
| 20260906090615 | 12 | 113 | 0.0 | 3.2 | 0.00 | 0.00 | 0.00 | 59 | 1021.6 |
| 20260906090114 | 12 | 89 | 4.8 | 4.8 | 0.00 | 0.00 | 0.00 | 60 | 1021.5 |
| 20260906085615 | 12 | 101 | 3.2 | 3.2 | 0.00 | 0.00 | 0.00 | 59 | 1021.4 |
| 20260906085114 | 12 | 122 | 3.2 | 3.2 | 0.00 | 0.00 | 0.00 | 59 | 1021.4 |
| 20260906084615 | 12 | 102 | 1.6 | 3.2 | 0.00 | 0.00 | 0.00 | 58 | 1021.5 |
| 20260906084115 | 12 | 76 | 3.2 | 4.8 | 0.00 | 0.00 | 0.00 | 58 | 1021.1 |
| 20260906083614 | 12 | 95 | 4.8 | 4.8 | 0.00 | 0.00 | 0.00 | 58 | 1021.1 |
| 20260906083115 | 12 | 93 | 3.2 | 4.8 | 0.00 | 0.00 | 0.00 | 59 | 1021.3 |
| 20260906082615 | 12 | 138 | 3.2 | 3.2 | 0.00 | 0.00 | 0.00 | 58 | 1021.2 |
| 20260906082115 | 12 | 60 | 3.2 | 4.8 | 0.00 | 0.00 | 0.00 | 59 | 1021.5 |
| 20260906081614 | 12 | 64 | 3.2 | 8.0 | 0.00 | 0.00 | 0.00 | 60 | 1021.2 |
| 20260906081115 | 13 | 97 | 9.7 | 9.7 | 0.00 | 0.00 | 0.00 | 60 | 1021.2 |
| 20260906080614 | 13 | 87 | 4.8 | 4.8 | 0.00 | 0.00 | 0.00 | 57 | 1021.2 |
| 20260906080115 | 13 | 131 | 3.2 | 4.8 | 0.00 | 0.00 | 0.00 | 57 | 1020.9 |
| 20260906075615 | 13 | 24 | 1.6 | 3.2 | 0.00 | 0.00 | 0.00 | 57 | 1021.1 |
| 20260906075115 | 13 | 25 | 3.2 | 6.4 | 0.00 | 0.00 | 0.00 | 56 | 1021.2 |
| 20260906074614 | 13 | 89 | 3.2 | 8.0 | 0.00 | 0.00 | 0.00 | 57 | 1021.2 |
| 20260906074115 | 13 | 31 | 4.8 | 8.0 | 0.00 | 0.00 | 0.00 | 56 | 1021.2 |
| 20260906073615 | 13 | 88 | 3.2 | 3.2 | 0.00 | 0.00 | 0.00 | 57 | 1021.3 |
| 20260906073114 | 13 | 55 | 3.2 | 6.4 | 0.00 | 0.00 | 0.00 | 58 | 1021.2 |
| 20260906072614 | 13 | 130 | 1.6 | 4.8 | 0.00 | 0.00 | 0.00 | 57 | 1021.5 |
| 20260906072115 | 13 | 82 | 4.8 | 6.4 | 0.00 | 0.00 | 0.00 | 58 | 1021.2 |
| 20260906071615 | 13 | 51 | 4.8 | 6.4 | 0.00 | 0.00 | 0.00 | 56 | 1021.2 |
| 20260906071115 | 13 | 104 | 4.8 | 6.4 | 0.00 | 0.00 | 0.00 | 56 | 1021.2 |
| 20260906070615 | 13 | 47 | 4.8 | 6.4 | 0.00 | 0.00 | 0.00 | 56 | 1021.5 |
| 20260906070115 | 13 | 48 | 6.4 | 8.0 | 0.00 | 0.00 | 0.00 | 56 | 1021.7 |
| 20260906065615 | 13 | 21 | 3.2 | 4.8 | 0.00 | 0.00 | 0.00 | 57 | 1021.6 |
| 20260906065115 | 13 | 36 | 4.8 | 4.8 | 0.00 | 0.00 | 0.00 | 57 | 1021.4 |
| 20260906064614 | 13 | 84 | 8.0 | 9.7 | 0.00 | 0.00 | 0.00 | 58 | 1021.6 |
| 20260906064114 | 14 | 79 | 9.7 | 11.3 | 0.00 | 0.00 | 0.00 | 58 | 1021.2 |
| 20260906063614 | 13 | 61 | 6.4 | 9.7 | 0.00 | 0.00 | 0.00 | 57 | 1021.4 |
| 20260906063115 | 14 | 94 | 3.2 | 6.4 | 0.00 | 0.00 | 0.00 | 57 | 1021.3 |
| 20260906062614 | 14 | 37 | 3.2 | 3.2 | 0.00 | 0.00 | 0.00 | 56 | 1021.6 |
| 20260906062114 | 14 | 76 | 4.8 | 8.0 | 0.00 | 0.00 | 0.00 | 57 | 1021.4 |
| 20260906061615 | 14 | 89 | 6.4 | 6.4 | 0.00 | 0.00 | 0.00 | 56 | 1021.1 |
| 20260906061115 | 15 | 53 | 4.8 | 6.4 | 0.00 | 0.00 | 0.00 | 56 | 1021.2 |
| 20260906060615 | 15 | 66 | 3.2 | 6.4 | 0.00 | 0.00 | 0.00 | 55 | 1021.0 |
| 20260906060114 | 15 | 28 | 4.8 | 6.4 | 0.00 | 0.00 | 0.00 | 53 | 1021.2 |
| 20260906055615 | 15 | 46 | 6.4 | 9.7 | 0.00 | 0.00 | 0.00 | 55 | 1021.2 |
| 20260906055114 | 15 | 61 | 4.8 | 6.4 | 0.00 | 0.00 | 0.00 | 55 | 1021.1 |
| 20260906054615 | 15 | 49 | 4.8 | 6.4 | 0.00 | 0.00 | 0.00 | 55 | 1021.0 |
| 20260906054115 | 15 | 87 | 6.4 | 6.4 | 0.00 | 0.00 | 0.00 | 55 | 1021.5 |
| 20260906053615 | 15 | 88 | 6.4 | 8.0 | 0.00 | 0.00 | 0.00 | 55 | 1021.2 |
| 20260906053114 | 15 | 97 | 4.8 | 6.4 | 0.00 | 0.00 | 0.00 | 53 | 1021.3 |
| 20260906052614 | 15 | 73 | 3.2 | 3.2 | 0.00 | 0.00 | 0.00 | 50 | 1021.0 |
| 20260906052115 | 15 | 85 | 1.6 | 3.2 | 0.00 | 0.00 | 0.00 | 50 | 1021.1 |
| 20260906051615 | 16 | 98 | 3.2 | 3.2 | 0.00 | 0.00 | 0.00 | 50 | 1021.1 |
| 20260906051115 | 16 | 83 | 6.4 | 8.0 | 0.00 | 0.00 | 0.00 | 52 | 1021.4 |
| 20260906050615 | 16 | 54 | 3.2 | 6.4 | 0.00 | 0.00 | 0.00 | 50 | 1021.4 |
| 20260906050114 | 16 | 74 | 3.2 | 9.7 | 0.00 | 0.00 | 0.00 | 51 | 1021.2 |
| 20260906045614 | 16 | 65 | 4.8 | 4.8 | 0.00 | 0.00 | 0.00 | 49 | 1020.9 |
| 20260906045114 | 17 | 87 | 6.4 | 8.0 | 0.00 | 0.00 | 0.00 | 49 | 1021.1 |
| 20260906044614 | 17 | 89 | 9.7 | 9.7 | 0.00 | 0.00 | 0.00 | 48 | 1021.1 |
| 20260906044114 | 18 | 102 | 8.0 | 8.0 | 0.00 | 0.00 | 0.00 | 46 | 1021.0 |
| 20260906043615 | 18 | 9 | 9.7 | 12.9 | 0.00 | 0.00 | 0.00 | 43 | 1020.6 |
| 20260906043114 | 18 | 11 | 16.1 | 17.7 | 0.00 | 0.00 | 0.00 | 42 | 1020.7 |
| 20260906042615 | 18 | 13 | 12.9 | 16.1 | 0.00 | 0.00 | 0.00 | 42 | 1020.6 |
| 20260906042114 | 18 | 8 | 11.3 | 16.1 | 0.00 | 0.00 | 0.00 | 42 | 1020.8 |
| 20260906041615 | 18 | 17 | 14.5 | 17.7 | 0.00 | 0.00 | 0.00 | 43 | 1020.9 |
| 20260906041115 | 18 | 8 | 16.1 | 16.1 | 0.00 | 0.00 | 0.00 | 44 | 1020.9 |
| 20260906040614 | 18 | 20 | 16.1 | 19.3 | 0.00 | 0.00 | 0.00 | 45 | 1021.0 |
| 20260906040114 | 18 | 21 | 12.9 | 19.3 | 0.00 | 0.00 | 0.00 | 44 | 1021.1 |
| 20260906035614 | 18 | 26 | 17.7 | 19.3 | 0.00 | 0.00 | 0.00 | 43 | 1020.8 |
| 20260906035115 | 19 | 22 | 12.9 | 16.1 | 0.00 | 0.00 | 0.00 | 41 | 1020.9 |
| 20260906034615 | 19 | 21 | 9.7 | 12.9 | 0.00 | 0.00 | 0.00 | 38 | 1020.8 |
| 20260906034114 | 19 | 47 | 6.4 | 6.4 | 0.00 | 0.00 | 0.00 | 37 | 1020.8 |
| 20260906033614 | 20 | 56 | 6.4 | 6.4 | 0.00 | 0.00 | 0.00 | 37 | 1020.6 |
| 20260906033114 | 20 | 34 | 6.4 | 6.4 | 0.00 | 0.00 | 0.00 | 33 | 1020.9 |
| 20260906032614 | 20 | 24 | 4.8 | 6.4 | 0.00 | 0.00 | 0.00 | 33 | 1021.1 |
| 20260906032114 | 20 | 45 | 9.7 | 11.3 | 0.00 | 0.00 | 0.00 | 34 | 1021.3 |
| 20260906031615 | 20 | 56 | 3.2 | 4.8 | 0.00 | 0.00 | 0.00 | 34 | 1021.1 |
| 20260906031115 | 20 | 92 | 4.8 | 4.8 | 0.00 | 0.00 | 0.00 | 32 | 1021.1 |
| 20260906030614 | 21 | 126 | 0.0 | 0.0 | 0.00 | 0.00 | 0.00 | 30 | 1021.1 |
| 20260906030114 | 21 | 89 | 1.6 | 3.2 | 0.00 | 0.00 | 0.00 | 30 | 1021.3 |
| 20260906025615 | 21 | 143 | 0.0 | 1.6 | 0.00 | 0.00 | 0.00 | 28 | 1021.4 |
| 20260906025114 | 21 | 250 | 0.0 | 0.0 | 0.00 | 0.00 | 0.00 | 28 | 1021.3 |
| 20260906024615 | 21 | 89 | 0.0 | 0.0 | 0.00 | 0.00 | 0.00 | 30 | 1021.1 |
| 20260906024114 | 21 | 144 | 0.0 | 1.6 | 0.00 | 0.00 | 0.00 | 29 | 1021.0 |
| 20260906023612 | 22 | 105 | 3.2 | 4.8 | 0.00 | 0.00 | 0.00 | 27 | 1020.7 |
| 20260906023112 | 22 | 269 | 0.0 | 4.8 | 0.00 | 0.00 | 0.00 | 27 | 1020.8 |
| 20260906022612 | 22 | 308 | 1.6 | 3.2 | 0.00 | 0.00 | 0.00 | 26 | 1020.7 |
| 20260906022112 | 22 | 262 | 3.2 | 3.2 | 0.00 | 0.00 | 0.00 | 26 | 1020.8 |
| 20260906021612 | 22 | 148 | 0.0 | 1.6 | 0.00 | 0.00 | 0.00 | 26 | 1020.6 |
| 20260906021112 | 22 | 246 | 0.0 | 0.0 | 0.00 | 0.00 | 0.00 | 26 | 1020.7 |
| 20260906020613 | 23 | 135 | 0.0 | 0.0 | 0.00 | 0.00 | 0.00 | 26 | 1020.4 |
| 20260906020113 | 23 | 235 | 0.0 | 0.0 | 0.00 | 0.00 | 0.00 | 26 | 1020.4 |
| 20260906015613 | 23 | 315 | 0.0 | 0.0 | 0.00 | 0.00 | 0.00 | 26 | 1020.5 |
| 20260906015112 | 24 | 203 | 0.0 | 1.6 | 0.00 | 0.00 | 0.00 | 25 | 1020.3 |
| 20260906014612 | 24 | 209 | 3.2 | 4.8 | 0.00 | 0.00 | 0.00 | 24 | 1020.3 |
| 20260906014113 | 25 | 196 | 6.4 | 6.4 | 0.00 | 0.00 | 0.00 | 24 | 1019.7 |
| 20260906013612 | 25 | 89 | 0.0 | 0.0 | 0.00 | 0.00 | 0.00 | 23 | 1019.5 |
| 20260906013112 | 25 | 152 | 1.6 | 3.2 | 0.00 | 0.00 | 0.00 | 24 | 1018.5 |
| 20260906012612 | 26 | 299 | 1.6 | 3.2 | 0.00 | 0.00 | 0.00 | 24 | 1018.8 |
| 20260906012112 | 26 | 13 | 0.0 | 0.0 | 0.00 | 0.00 | 0.00 | 24 | 1019.0 |
| 20260906011612 | 26 | 224 | 0.0 | 3.2 | 0.00 | 0.00 | 0.00 | 24 | 1019.1 |
| 20260906011113 | 27 | 259 | 3.2 | 3.2 | 0.00 | 0.00 | 0.00 | 23 | 1019.7 |
| 20260906010612 | 27 | 254 | 4.8 | 6.4 | 0.00 | 0.00 | 0.00 | 22 | 1019.8 |
| 20260906010113 | 27 | 252 | 3.2 | 9.7 | 0.00 | 0.00 | 0.00 | 21 | 1019.8 |
| 20260906005613 | 28 | 283 | 8.0 | 11.3 | 0.00 | 0.00 | 0.00 | 24 | 1019.5 |
| 20260906005112 | 28 | 149 | 3.2 | 6.4 | 0.00 | 0.00 | 0.00 | 23 | 1019.4 |
| 20260906004612 | 28 | 178 | 8.0 | 8.0 | 0.00 | 0.00 | 0.00 | 21 | 1019.3 |
| 20260906004112 | 28 | 53 | 6.4 | 9.7 | 0.00 | 0.00 | 0.00 | 21 | 1019.6 |
| 20260906003612 | 28 | 144 | 4.8 | 4.8 | 0.00 | 0.00 | 0.00 | 23 | 1019.7 |
| 20260906003113 | 28 | 167 | 3.2 | 6.4 | 0.00 | 0.00 | 0.00 | 23 | 1019.3 |
| 20260906002612 | 28 | 247 | 3.2 | 4.8 | 0.00 | 0.00 | 0.00 | 23 | 1019.4 |
| 20260906002111 | 28 | 211 | 3.2 | 6.4 | 0.00 | 0.00 | 0.00 | 23 | 1019.3 |
| 20260906001612 | 29 | 214 | 6.4 | 8.0 | 0.00 | 0.00 | 0.00 | 23 | 1019.2 |
| 20260906001112 | 29 | 200 | 4.8 | 6.4 | 0.00 | 0.00 | 0.00 | 23 | 1019.2 |
| 20260906000611 | 29 | 135 | 4.8 | 4.8 | 0.00 | 0.00 | 0.00 | 23 | 1018.9 |
| 20260906000112 | 29 | 185 | 1.6 | 3.2 | 0.00 | 0.00 | 0.00 | 22 | 1019.0 |
| 20260905235611 | 29 | 110 | 3.2 | 4.8 | 0.00 | 0.00 | 0.00 | 22 | 1019.1 |
| 20260905235112 | 29 | 169 | 6.4 | 8.0 | 0.00 | 0.00 | 0.00 | 21 | 1019.3 |
| 20260905234611 | 29 | 345 | 3.2 | 3.2 | 0.00 | 0.00 | 0.00 | 22 | 1019.0 |
| 20260905234112 | 29 | 168 | 4.8 | 9.7 | 0.00 | 0.00 | 0.00 | 23 | 1019.0 |
| 20260905233611 | 29 | 223 | 11.3 | 12.9 | 0.00 | 0.00 | 0.00 | 22 | 1019.1 |
| 20260905233111 | 29 | 179 | 3.2 | 4.8 | 0.00 | 0.00 | 0.00 | 21 | 1019.0 |
| 20260905232611 | 29 | 140 | 6.4 | 8.0 | 0.00 | 0.00 | 0.00 | 22 | 1019.1 |
| 20260905232111 | 29 | 117 | 3.2 | 4.8 | 0.00 | 0.00 | 0.00 | 22 | 1019.1 |
| 20260905231612 | 29 | 144 | 4.8 | 8.0 | 0.00 | 0.00 | 0.00 | 22 | 1019.1 |
| 20260905231112 | 29 | 165 | 6.4 | 8.0 | 0.00 | 0.00 | 0.00 | 22 | 1019.3 |